Home   Weather   Big Rapids   Past weeks
Flag for USA

Past Weather in Big Rapids, Michigan, USA — Yesterday and Last 2 Weeks

Now
47 °F

More clouds than sun.


Feels Like: 43 °F
Forecast: 47 / 35 °F
Wind: 8 mph from West

Location: Roben-Hood Airport

Current Time: Oct 14, 2019 at 2:56:05 pm

Latest Report: Oct 14, 2019 at 2:15 pm


Visibility: 10 mi

Pressure: 30.00 "Hg

Humidity: 57%

Dew Point: 32 °F

Location of Big RapidsLocation

Past Weather in Big Rapids — Graph

°F

Big Rapids Temperature Yesterday

Maximum temperature yesterday: 42 °F (at 7:56 am)
Minimum temperature yesterday: 37 °F (at 10:16 pm)
Average temperature yesterday: 40 °F

High & Low Weather Summary for the Past Weeks

 TemperatureHumidityPressure
High78 °F (Sep 30, 6:35 pm)99% (Sep 30, 7:36 am)30.43 "Hg (Sep 30, 7:36 am)
Low35 °F (Oct 8, 7:38 am)32% (Oct 7, 4:36 pm)29.74 "Hg (Oct 13, 6:36 am)
Average53 °F82%30.05 "Hg
* Reported Sep 29 1:16 pm — Oct 14 1:36 pm, Big Rapids. Weather by CustomWeather, © 2019

Note: Actual official high and low records may vary slightly from our data, if they occured in-between our weather recording intervals... More about our weather records

Advertising

Big Rapids Weather History for the Previous 24 Hours

Scroll right to see more
 ConditionsComfort  
Time TempWeatherWind HumidityBarometerVisibility
1:36 pm
Mon, Oct 14
46 °FMore clouds than sun.9 mph58%30.01 "Hg10 mi
12:55 pm48 °FMore clouds than sun.9 mph57%30.00 "Hg10 mi
12:36 pm46 °FCloudy.7 mph62%30.00 "Hg10 mi
12:17 pm46 °FCloudy.7 mph67%30.01 "Hg10 mi
11:56 am43 °FOvercast.8 mph73%30.01 "Hg10 mi
11:36 am44 °FCloudy.6 mph73%30.01 "Hg10 mi
11:00 am46 °FBroken clouds.7 mph73%30.00 "Hg10 mi
10:36 am43 °FCloudy.6 mph77%29.99 "Hg10 mi
10:16 am44 °FBroken clouds.8 mph80%29.99 "Hg10 mi
9:58 am43 °FScattered clouds.8 mph81%29.98 "Hg10 mi
9:36 am41 °FScattered clouds.6 mph86%29.98 "Hg10 mi
9:16 am39 °FPartly sunny.7 mph90%29.97 "Hg10 mi
8:59 am40 °FCloudy.6 mph90%29.96 "Hg10 mi
8:35 am39 °FBroken clouds.5 mph92%29.95 "Hg10 mi
8:16 am39 °FOvercast.6 mph92%29.94 "Hg10 mi
7:57 am38 °FOvercast.3 mph92%29.93 "Hg10 mi
7:39 am38 °FPassing clouds.No wind93%29.93 "Hg10 mi
7:16 am37 °FPassing clouds.5 mph91%29.92 "Hg10 mi
6:56 am38 °FPassing clouds.3 mph90%29.92 "Hg10 mi
6:39 am38 °FOvercast.5 mph89%29.92 "Hg10 mi
6:15 am39 °FMostly cloudy.6 mph88%29.91 "Hg10 mi
5:55 am39 °FMostly cloudy.6 mph87%29.91 "Hg10 mi
5:38 am39 °FLight rain. Mostly cloudy.5 mph86%29.90 "Hg10 mi
5:16 am39 °FMostly cloudy.7 mph86%29.89 "Hg10 mi
4:56 am39 °FMostly cloudy.7 mph87%29.89 "Hg10 mi
4:35 am38 °FMostly cloudy.6 mph88%29.88 "Hg10 mi
3:55 am38 °FPassing clouds.6 mph88%29.86 "Hg10 mi
3:36 am38 °FPassing clouds.6 mph88%29.86 "Hg10 mi
2:56 am39 °FMostly cloudy.6 mph86%29.86 "Hg10 mi
2:36 am40 °FLight rain. Mostly cloudy.7 mph85%29.86 "Hg10 mi
1:55 am39 °FOvercast.5 mph84%29.85 "Hg10 mi
1:36 am38 °FPassing clouds.3 mph86%29.85 "Hg10 mi
12:59 am38 °FPassing clouds.7 mph86%29.84 "Hg10 mi
12:36 am37 °FPassing clouds.6 mph88%29.85 "Hg10 mi
12:16 am37 °FPassing clouds.5 mph87%29.84 "Hg10 mi
11:59 pm
Sun, Oct 13
37 °FPassing clouds.5 mph84%29.84 "Hg10 mi
11:36 pm38 °FPassing clouds.6 mph84%29.85 "Hg10 mi
11:16 pm38 °FClear.8 mph84%29.85 "Hg10 mi
10:57 pm38 °FClear.8 mph86%29.85 "Hg10 mi
10:35 pm37 °FClear.8 mph91%29.85 "Hg10 mi
10:16 pm37 °FPassing clouds.6 mph91%29.84 "Hg10 mi
9:55 pm37 °FPassing clouds.6 mph90%29.84 "Hg10 mi
9:15 pm39 °FPartly cloudy.7 mph88%29.83 "Hg10 mi
8:55 pm39 °FMostly cloudy.5 mph90%29.83 "Hg10 mi
8:15 pm39 °FOvercast.5 mph88%29.82 "Hg10 mi
7:56 pm40 °FMostly cloudy.6 mph87%29.82 "Hg10 mi
7:37 pm40 °FLight rain. Mostly cloudy.7 mph86%29.81 "Hg10 mi
7:16 pm40 °FOvercast.7 mph85%29.81 "Hg10 mi
6:56 pm40 °FMore clouds than sun.10 mph82%29.80 "Hg10 mi
6:37 pm41 °FCloudy.9 mph82%29.80 "Hg10 mi
6:20 pm41 °FMore clouds than sun.6 mph83%29.80 "Hg10 mi
5:55 pm41 °FMore clouds than sun.8 mph81%29.79 "Hg10 mi
5:36 pm41 °FCloudy.13 mph83%29.78 "Hg10 mi
5:18 pm41 °FOvercast.10 mph84%29.78 "Hg10 mi
4:35 pm41 °FCloudy.12 mph85%29.77 "Hg10 mi
3:55 pm40 °FLight snow. Cloudy.12 mph86%29.76 "Hg10 mi
3:36 pm40 °FMostly cloudy.13 mph85%29.76 "Hg10 mi
3:16 pm40 °FLight rain. Mostly cloudy.15 mph84%29.75 "Hg10 mi
2:59 pm41 °FLight rain. Mostly cloudy.13 mph83%29.75 "Hg10 mi
2:35 pm41 °FCloudy.9 mph86%29.75 "Hg10 mi
Weather by CustomWeather, © 2019

See weather overview